Regional Weather Roundup
Issued by NWS Wakefield, VA

Home | Current Version | Previous Version | Text Only | Print | Product List | Glossary On
Versions: 1 2 3 4 5 6 7 8 9 10 11 12 13 14 15 16 17 18 19 20 21 22 23 24 25 26 27 28 29 30 31 32 33 34 35 36 37 38 39 40 41 42 43 44 45 46 47 48 49 50
000
ASUS41 KAKQ 290310
RWRAKQ

REGIONAL WEATHER ROUNDUP
NATIONAL WEATHER SERVICE WAKEFIELD VA
1000 PM EST SUN DEC 28 2014

Note: "fair" indicates few or no clouds below 12,000 feet with no
significant weather and/or obstructions to visibility. * = Denotes
station may not report precipitation (e.g., rain,snow,etc.),
thunder or fog.

VAZ042-051-052>054-056-290400-
NORTHERN VIRGINIA

CITY           SKY/WX    TMP DP  RH WIND       PRES   REMARKS
WASH NATIONAL  LGT RAIN  53  44  71 N8        30.09R
DULLES         CLOUDY    47  39  74 N8        30.10R
FORT BELVOIR   LGT RAIN  49  45  85 NW2       30.09R
QUANTICO       CLOUDY    51  44  77 N8        30.10R
FREDERICKSBRG* CLOUDY    50  50 100 N3        30.07R
STAFFORD*      CLOUDY    50  50 100 N8        30.12R
WARRENTON      DRIZZLE   49  49 100 NE3       30.08R
CULPEPER*      RAIN      48  46  93 CALM      30.08S
MANASSAS*      CLOUDY    48  46  93 N5        30.09R
LEESBURG*      CLOUDY    46  41  81 N6        30.11R
WINCHESTER     CLOUDY    46  32  57 NW8       30.10R
FRONT ROYAL*   CLOUDY    46  39  76 N3        30.08R
LURAY*         CLOUDY    48  45  87 NE7       30.06S
$$

VAZ048-049-060>072-079>083-290400-
CENTRAL AND SOUTH CENTRAL VIRGINIA

CITY           SKY/WX    TMP DP  RH WIND       PRES   REMARKS
RICHMOND       MOCLDY    53  50  89 CALM      30.04R
CHESTERFIELD*  CLOUDY    52  41  66 CALM      30.05R
PETERSBURG*    CLOUDY    51  50  97 CALM      30.05R FOG
HANOVER        MOCLDY    50  48  93 CALM      30.06R FOG
TAPPAHANNOCK*  CLOUDY    51  44  78 CALM      30.06S
QUINTON*       CLOUDY    50  50 100 W7        30.05R
CHARLOTTSVILLE LGT RAIN  48  44  86 NE3       30.06R
GORDONSVILLE*  CLOUDY    45  45  99 CALM      30.06R
ORANGE*        LGT RAIN  48  45  87 CALM      30.08S
LOUISA*        CLOUDY    48  46  93 N6        30.05R
BUMPASS*       CLOUDY    48  48  98 NW3       30.06R
FARMVILLE*     CLOUDY    56  49  77 SW5       30.04R
CREWE*         CLOUDY    55  48  79 W3        30.04R
FORT PICKETT*  CLOUDY    53  51  95 SW5       30.04S
CHASE CITY*    PTCLDY    51  51 100 CALM      30.06R
CLARKSVILLE*   CLOUDY    52  52 100 CALM      30.06R VSB 3/4
SOUTH HILL*    MOCLDY    53  52  99 SW3       30.11S VSB 3/4
LAWRENCEVILLE* CLOUDY    54  54 100 CALM      30.04F VSB 1/2
EMPORIA*       FOG       50  50 100 CALM      30.07R VSB<1/4
$$

VAZ088>098-290400-
SOUTHEAST VIRGINIA

CITY           SKY/WX    TMP DP  RH WIND       PRES   REMARKS
NORFOLK        CLOUDY    60  56  86 SW8       30.04R
VIRGINIA BEACH CLOUDY    60  58  92 W6        30.04R
NORFOLK NAVAL  CLOUDY    61  56  83 W5        30.06R
WEST POINT*    CLOUDY    54  52  94 E3        30.05S
SALUDA*        CLOUDY    48  45  87 CALM      30.05R
NEWPORT NEWS   CLOUDY    59  53  80 CALM      30.05R
LANGLEY AFB    CLOUDY    55  52  89 NW1       30.05R
FORT EUSTIS    CLOUDY    55  55 100 SE1       30.03R
WILLIAMSBURG*  CLOUDY    57  54  88 CALM      30.06R
HR EXEC AP*    CLOUDY    57  55  94 W3        30.07R
FRANKLIN*      CLOUDY    57  57 100 CALM      30.05R
WAKEFIELD      CLOUDY    58  55  90 CALM      30.04R
$$

VAZ020-022-025-037-045-290400-
WEST CENTRAL AND SOUTHWEST VIRGINIA

CITY           SKY/WX    TMP DP  RH WIND       PRES   REMARKS
STAUNTON*      CLOUDY    48  46  91 CALM      30.07S
WAYNESBORO*    CLOUDY    50  45  83 SW6       30.06S
HOT SPRINGS VA FOG       41  41 100 W16G22    30.02R VSB<1/4
LYNCHBURG      CLOUDY    52  46  80 W3        30.07R
DANVILLE       CLOUDY    52  49  89 SW3       30.06S
SOUTH BOSTON*  CLOUDY    50  48  95 CALM      30.06S
MARTINSVILLE   CLOUDY    45  45 100 CALM      30.08F
ROANOKE        CLOUDY    51  45  79 SW5       30.08S
BLACKSBURG     CLOUDY    46  44  93 W3        30.11R
DUBLIN*        CLOUDY    47  47 100 CALM      30.08F
MARION*        FOG       47  46  96 SW8       30.11S VSB 1/4
HILLSVILLE*    MOCLDY    46  45  94 NW6       30.07F
RICHLANDS*     FOG       44  43  95 NW5       30.09F VSB 1/4
WISE*          DRZL/FOG  43  43 100 N3        30.10S VSB 1/4
ABINGDON*      FOG       48  48 100 W5        30.11R VSB 1/4
$$

MDZ021>025-VAZ099-100-290400-
SOUTHERN MARYLAND AND THE DELMARVA PENINSULA

CITY           SKY/WX    TMP DP  RH WIND       PRES   REMARKS
PATUXENT RIVER CLOUDY    49  46  90 CALM      30.05R
BAY BRIDGE APT DRIZZLE   46  45  93 N5        30.08R
LEONARDTOWN    CLOUDY    48  46  93 CALM      30.08R
DOVER          CLOUDY    49  49 100 NW5       30.03R
GEORGETOWN     CLOUDY    50  47  89 W3        30.07R
EASTON         CLOUDY    49  49 100 CALM      30.10R
CAMBRIDGE      CLOUDY    52  48  87 CALM      30.05F
SALISBURY      CLOUDY    51  48  89 CALM      30.05R
OCEAN CITY     CLOUDY    50  46  86 CALM      30.07R
WALLOPS ISLAND CLOUDY    52  45  77 N5        30.06R
ACCOMACK*      CLOUDY    50  45  81 NW3       30.05R
$$

NCZ012>017-030>032-290400-
NORTH CENTRAL AND EASTERN NORTH CAROLINA

CITY           SKY/WX    TMP DP  RH WIND       PRES   REMARKS
ROANOKE RAPIDS FOG       54  54 100 CALM      30.06R VSB 3/4
RALEIGH        FOG       55  54  94 CALM      30.08R VSB 1/4
ELIZABETH CITY CLOUDY    62  57  83 CALM      30.04R
AHOSKIE*       CLOUDY    56  55  98 CALM      30.06R FOG
EDENTON*       CLOUDY    57  56  97 SW3       30.04R
CURRITUCK*     CLOUDY    59  57  94 CALM      30.04R
KILL DEVIL HLS CLOUDY    58  58  99 S3        30.04S FOG
MANTEO         CLOUDY    57  57 100 CALM      30.05S
CAPE HATTERAS  CLOUDY    58  57  97 NW5       30.06S
TARBORO*       CLOUDY    57  55  95 CALM      30.06R FOG
GOLDSBORO      FOG       59  59 100 S1        30.04S VSB 3/4
WASHINGTON     CLOUDY    59  58  98 S3        30.06R
GREENVILLE     CLOUDY    59  59 100 CALM      30.07R
NEW BERN       CLOUDY    62  58  86 CALM      30.07S
WILMINGTON     CLOUDY    63  61  93 CALM      30.06S
$$

VAZ048-290400-
ELSEWHERE

CITY           SKY/WX    TMP DP  RH WIND       PRES   REMARKS
HARRISBURG PA  CLOUDY    41  32  70 NW7       30.09R
BALTIMORE      LGT RAIN  49  41  74 NW6       30.07R
ANNAPOLIS      LGT RAIN  50  44  80 NW6       30.07R
ANDREWS AFB    LGT RAIN  49  46  88 NW7       30.08R
PHILADELPHIA   LGT RAIN  50  41  71 W7        30.06R
HENDERSON NC   FOG       52  50  95 SW5       30.07R VSB 1/4
GREENSBORO     FOG       49  48  97 S5        30.06R VSB 1/2
ROCKY MOUNT    FOG       56  55  97 CALM      30.06R VSB 1/2
$$

VAZ100-290400-
MARINE

STATION/POSITION TIME  TEMP    WIND        PRES    WAVE   SWELL
                       AIR SEA DIR/SP/G            HT/PER HT/PER
                 (UTC) (F)     (DEG/KT/KT) (MB)    (FT/S) (FT/S)
CAPE MAY NJ      0300   45 46  330/  3/  7 1017.2R
LEWES DE         0300   49 44  280/  4/  4 1017.6R
15NM E FENWICK I 0300   48 45              1017.1R   3/ 5
OCEAN-CITY-INLET 0300   51 46  290/  1/  1 1017.4R
WACHAPREAGUE VA  0300   52 50  310/  1/  2 1017.5R
THOMAS POINT MD  0300   50 43  350/  9/  9 1019.4R
GOOSES REEF MD   0300   46     VRB  6/ 10  1016.8F
COVE POINT MD    0300   49      CALM  /  1 1017.6S
SOLOMONS ISLAND  0300      44                N/A
BISHOPS HEAD MD  0300   50 46   CALM  /  1 1017.3R
PINEY POINT MD   0300          130/  3/  3   N/A
POTOMAC MD       0300   48     300/  2/  2 1016.8R
CAMBRIDGE MD     0300   46 43   CALM  /  1 1017.5F
LEWISETTA VA     0300   49 45     CALM     1017.2F
RAPPAHANNOCK LGT 0300          310/  5/  7 1018.0R
STINGRAY PT      0300   47     330/  6/  8 1018.2R
YORK RVR RNG VA  0300   50      CALM  /  1 1016.6R
YORKTOWN VA      0300   51 47   90/  2/  3 1017.1R
JAMESTOWN VA     0300   52        CALM       N/A
DOMINION TERM VA 0300   55     310/  4/  4 1017.3R
KIPTOPEKE VA     0300      51   CALM  /  1   N/A
CHES BAY BRIDGE  0300   54 46  320/  3/  6 1016.7R
CAPE HENRY VA    0300   57     270/  3/  3 1015.9R
CHESAPEAKE LGHT  0200   56     220/  8/  8 1017.6R
WILLOUBY STN VA  0300   55     300/  2/  2 1017.8R
S CRANEY ISL VA  0300          250/  5/  7 1017.1R
CAPE HENRY BUOY  0300      48                N/A     2/12   2/12
1ST LANDING BUOY 0300   52     350/  4/  6 1016.6S
CAPE CHARLES BUO 0300      48                N/A     2/13   2/13
64NM E OF VA BCH 0300   55 53  280/  2/  4 1016.7S   3/14   3/14
DUCK PIER NC     0300   58 50  200/  6/  8 1016.1F
44100 DUCK FRF   0300      50                N/A     2/13   2/13
44056 DUCK FRF   0300      49                N/A     2/13   2/13
OREGON INLET NC  0300   56 53  230/  2/  3 1017.6R
HATTERAS NC      0300   56 56  310/  4/  4 1018.3R
DIAMOND SHLS NC  0300   66                 1017.9R   3/11
CAPE LOOKOUT NC  0200   62     270/  8/ 11 1018.0R
$$


USA.gov is the U.S. government's official web portal to all federal, state and local government web resources and services.